Flag for Spain Weather past 2 weeks in Barcelona, Barcelona, Spain

Now
72 °F

Passing clouds.


Feels Like: 75 °F
Forecast: 64 / 78 °F
Wind: 3 mph from West

Location: Barcelona Airport

Current Time: Jun 2, 2015 at 10:04:01 AM

Latest Report: Jun 2, 2015 at 9:30 AM


Visibility: N/A

Pressure: 30.12 "Hg

Humidity: 69%

Dew point: 61 °F

Location of BarcelonaLocation

Historic Weather in Barcelona — Graph

°F

Barcelona temperature yesterday

Maximum temperature yesterday: 75 °F (at 11:00 AM)
Minimum temperature yesterday: 64 °F (at 2:00 AM)
Average temperature yesterday: 70 °F

Past Weeks' High & Low Weather Summary

 TemperatureHumidityPressure
High77 °F (May 25, 3:00 PM)100% (May 20, 2:00 AM)30.21 "Hg (May 20, 2:00 AM)
Low52 °F (May 20, 9:00 AM)32% (May 22, 11:00 AM)29.83 "Hg (May 18, 7:30 PM)
Average65 °F72%30.04 "Hg
* Reported May 18 9:00 AM — Jun 2 9:00 AM, Barcelona, Weather by CustomWeather, © 2015

Note: Actual official high and low records may vary slightly from our data, if they occured in-between our weather recording intervals... More about our weather records

Advertising

Barcelona weather history for previous 24 hours

 ConditionsComfort  
Time TempWeatherWind HumidityBarometerVisibility
9:00 AM
Tue, Jun 2
70 °FPassing clouds.5 mph64%30.12 "HgN/A
8:30 AM66 °FPassing clouds.5 mph64%30.12 "HgN/A
8:00 AM64 °FPassing clouds.6 mph64%30.09 "HgN/A
7:30 AM64 °FPassing clouds.6 mph64%30.09 "HgN/A
7:00 AM64 °FPassing clouds.5 mph60%30.09 "HgN/A
6:30 AM63 °FPassing clouds.6 mph64%30.09 "HgN/A
5:00 AM64 °FPassing clouds.5 mph64%30.07 "HgN/A
4:30 AM64 °FPassing clouds.1 mph60%30.07 "HgN/A
4:00 AM64 °FPassing clouds.6 mph64%30.07 "HgN/A
3:30 AM64 °FPassing clouds.3 mph64%30.09 "HgN/A
3:00 AM64 °FPassing clouds.5 mph60%30.09 "HgN/A
2:30 AM64 °FPassing clouds.1 mph60%30.09 "HgN/A
2:00 AM66 °FPassing clouds.6 mph56%30.09 "HgN/A
1:30 AM64 °FPassing clouds.5 mph68%30.09 "HgN/A
1:00 AM66 °FPassing clouds.5 mph64%30.09 "HgN/A
12:30 AM66 °FPassing clouds.6 mph73%30.09 "HgN/A
12:00 AM66 °FPassing clouds.5 mph88%30.09 "HgN/A
11:30 PM
Mon, Jun 1
68 °FPassing clouds.6 mph78%30.09 "HgN/A
10:30 PM68 °FPassing clouds.8 mph83%30.09 "HgN/A
10:00 PM68 °FPassing clouds.8 mph88%30.09 "HgN/A
9:30 PM68 °FPassing clouds.9 mph88%30.09 "HgN/A
9:00 PM70 °FPassing clouds.13 mph83%30.07 "HgN/A
8:30 PM70 °FPassing clouds.14 mph83%30.07 "HgN/A
8:00 PM72 °FPassing clouds.12 mph78%30.09 "HgN/A
7:30 PM72 °FPassing clouds.12 mph73%30.07 "HgN/A
7:00 PM73 °FPassing clouds.12 mph65%30.07 "HgN/A
6:30 PM73 °FPassing clouds.13 mph65%30.07 "HgN/A
6:00 PM75 °FPassing clouds.14 mph65%30.07 "HgN/A
5:30 PM75 °FPassing clouds.15 mph61%30.07 "HgN/A
5:00 PM73 °FPassing clouds.15 mph69%30.07 "HgN/A
4:30 PM73 °FPassing clouds.15 mph74%30.07 "HgN/A
4:00 PM73 °FPassing clouds.14 mph69%30.07 "HgN/A
3:30 PM75 °FPassing clouds.14 mph65%30.07 "HgN/A
3:00 PM75 °FPassing clouds.14 mph61%30.07 "HgN/A
2:30 PM75 °FPassing clouds.14 mph61%30.07 "HgN/A
2:00 PM75 °FPassing clouds.14 mph61%30.09 "HgN/A
1:30 PM75 °FPassing clouds.12 mph57%30.09 "HgN/A
1:00 PM75 °FPassing clouds.10 mph47%30.09 "HgN/A
12:30 PM75 °FPassing clouds.10 mph54%30.09 "HgN/A
12:00 PM73 °FPassing clouds.9 mph53%30.09 "HgN/A
11:30 AM73 °FPassing clouds.8 mph53%30.09 "HgN/A
11:00 AM75 °FPassing clouds.5 mph57%30.09 "HgN/A
10:30 AM72 °FPassing clouds.7 mph65%30.09 "HgN/A
10:00 AM73 °FPassing clouds.7 mph57%30.09 "HgN/A
Weather by CustomWeather, © 2015

See weather overviewHow to use our weather pages